Location: Celina Division
(33.3022°N, 96.7580°W)
Time: 02:47:50
(UTC+00:00)

X-37B - Pass Details

Date: 05 December 2022
Orbit: 277 x 277 km, 45.0° (Epoch: 01 November)

Event Time Altitude Azimuth Distance (km) Brightness Sun altitude
Rises 00:57:09 0° 235° (SW) 1,900 5.3 -20.0°
Reaches altitude 10° 00:59:03 10° 235° (SW) 1,092 3.9 -20.4°
Enters shadow 01:00:20 27° 235° (SW) 574 2.1 -20.6°
